DW7346 Weather Reports


Display with metric or nautical units.
time (UTC)temp
F
wind
direction
speed
MPH
gust
MPH
rain 1hr
in
rain 24hr
in
rain mn
in
humidity
%
barometer
mb
20260902081539 84 193 0.0 3.0 0.00 0.00 0.00 69 1012.3
20260902080030 84 111 0.0 3.0 0.00 0.00 0.00 68 1012.3
20260902074528 85 95 1.0 4.0 0.00 0.00 0.00 68 1012.3
20260902073027 85 155 1.0 6.0 0.00 0.00 0.00 68 1012.3
20260902071533 85 141 1.0 5.0 0.00 0.00 0.00 67 1012.3
20260902070024 86 165 0.0 4.0 0.00 0.00 0.00 67 1012.4
20260902064523 86 129 1.0 5.0 0.00 0.00 0.00 66 1012.3
20260902063023 86 96 2.0 6.0 0.00 0.00 0.00 66 1012.1
20260902061519 86 101 3.0 8.0 0.00 0.00 0.00 66 1012.1
20260902060017 86 150 2.0 6.0 0.00 0.00 0.00 66 1011.9
20260902054515 87 123 3.0 7.0 0.00 0.00 0.00 65 1011.7
20260902053015 87 146 0.0 4.0 0.00 0.00 0.00 63 1011.6
20260902051511 88 267 2.0 10.0 0.00 0.00 0.00 62 1011.6
20260902050009 89 125 2.0 9.0 0.00 0.00 0.00 60 1011.5
20260902044515 89 143 2.0 8.0 0.00 0.00 0.00 60 1011.6
20260902043006 89 102 0.0 0.0 0.00 0.00 0.00 60 1011.3
20260902041505 90 102 0.0 3.0 0.00 0.00 0.00 59 1011.2
20260902040005 90 101 0.0 3.0 0.00 0.00 0.00 58 1011.3
20260902034505 90 94 1.0 5.0 0.00 0.00 0.00 57 1011.2
20260902033004 90 109 0.0 2.0 0.00 0.00 0.00 57 1011.2
20260902031508 90 86 1.0 4.0 0.00 0.00 0.00 57 1011.1
20260902030003 90 109 0.0 2.0 0.00 0.00 0.00 57 1010.9
20260902024504 90 109 0.0 2.0 0.00 0.00 0.00 56 1010.7
20260902023002 91 109 0.0 2.0 0.00 0.00 0.00 55 1010.4
20260902021502 91 107 0.0 2.0 0.00 0.00 0.00 55 1010.2
20260902020001 92 107 0.0 2.0 0.00 0.00 0.00 54 1010.1
20260902014503 93 108 0.0 3.0 0.00 0.00 0.00 52 1009.9
20260902013111 93 104 0.0 3.0 0.00 0.00 0.00 51 1009.7
20260902011600 94 108 0.0 3.0 0.00 0.00 0.00 50 1009.6
20260902010059 94 116 2.0 7.0 0.00 0.00 0.00 49 1009.6
20260902004559 95 96 1.0 5.0 0.00 0.00 0.00 48 1009.6
20260902003103 96 92 0.0 4.0 0.00 0.00 0.00 48 1009.6
20260902001556 97 85 0.0 4.0 0.00 0.00 0.00 47 1009.7
20260902000055 98 130 0.0 4.0 0.00 0.00 0.00 46 1009.8
20260901234606 99 34 1.0 7.0 0.00 0.00 0.00 46 1009.8
20260901233057 100 192 0.0 5.0 0.00 0.00 0.00 45 1009.8
20260901231554 101 114 3.0 8.0 0.00 0.00 0.00 43 1009.8
20260901230055 101 117 1.0 4.0 0.00 0.00 0.00 43 1009.9
20260901224553 101 104 1.0 7.0 0.00 0.00 0.00 43 1010.0
20260901223059 101 46 1.0 6.0 0.00 0.00 0.00 42 1010.0
20260901221609 100 84 0.0 7.0 0.00 0.00 0.00 43 1010.0
20260901220048 100 100 0.0 6.0 0.00 0.00 0.00 43 1010.1
20260901214547 101 153 2.0 7.0 0.00 0.00 0.00 42 1010.3
20260901213048 101 223 2.0 7.0 0.00 0.00 0.00 41 1010.4
20260901211544 101 141 2.0 4.0 0.00 0.00 0.00 42 1010.5
20260901210041 100 46 2.0 6.0 0.00 0.00 0.00 44 1010.6
20260901204539 100 60 1.0 6.0 0.00 0.00 0.00 43 1010.7
20260901203048 100 70 2.0 5.0 0.00 0.00 0.00 47 1011.0
20260901201544 99 98 3.0 9.0 0.00 0.00 0.00 46 1011.1
20260901200033 98 121 1.0 7.0 0.00 0.00 0.00 47 1011.3
20260901194529 99 65 0.0 6.0 0.00 0.00 0.00 47 1011.5
20260901193028 99 207 2.0 5.0 0.00 0.00 0.00 48 1011.6
20260901191525 99 1 2.0 6.0 0.00 0.00 0.00 47 1011.8
20260901190024 98 132 2.0 6.0 0.00 0.00 0.00 49 1012.2
20260901184522 99 56 2.0 5.0 0.00 0.00 0.00 49 1012.4
20260901183020 98 73 2.0 8.0 0.00 0.00 0.00 50 1012.7
20260901181520 98 84 1.0 7.0 0.00 0.00 0.00 51 1012.9
20260901180016 97 110 2.0 6.0 0.00 0.00 0.00 50 1013.1
20260901174511 96 44 2.0 6.0 0.00 0.00 0.00 53 1013.3
20260901173008 94 55 0.0 3.0 0.00 0.00 0.00 55 1013.5
20260901171510 94 224 2.0 7.0 0.00 0.00 0.00 55 1013.8
20260901170013 95 217 2.0 6.0 0.00 0.00 0.00 54 1014.1
20260901164502 93 106 1.0 6.0 0.00 0.00 0.00 59 1014.3
20260901163002 93 165 2.0 5.0 0.00 0.00 0.00 58 1014.2
20260901161558 92 84 1.0 5.0 0.00 0.00 0.00 61 1014.2
20260901154552 90 243 1.0 7.0 0.00 0.00 0.00 64 1014.3
20260901153051 89 193 3.0 7.0 0.00 0.00 0.00 64 1014.2
20260901151548 88 188 1.0 5.0 0.00 0.00 0.00 65 1014.1
20260901150046 88 214 2.0 5.0 0.00 0.00 0.00 66 1014.2
20260901144541 87 155 0.0 3.0 0.00 0.00 0.00 69 1014.3
20260901143039 87 203 1.0 3.0 0.00 0.00 0.00 68 1014.3
20260901141537 85 232 1.0 3.0 0.00 0.00 0.00 71 1014.4
20260901140036 84 188 0.0 3.0 0.00 0.00 0.00 73 1014.5
20260901134550 83 108 0.0 3.0 0.00 0.00 0.00 75 1014.5
20260901133031 82 69 0.0 3.0 0.00 0.00 0.00 77 1014.3
20260901131529 80 120 0.0 2.0 0.00 0.00 0.00 79 1014.3
20260901130030 79 177 0.0 1.0 0.00 0.00 0.00 80 1014.1
20260901124527 79 177 0.0 0.0 0.00 0.00 0.00 79 1013.9
20260901123023 79 177 0.0 0.0 0.00 0.00 0.00 78 1013.7
20260901121521 79 177 0.0 0.0 0.00 0.00 0.00 78 1013.5
20260901120019 79 177 0.0 0.0 0.00 0.00 0.00 77 1013.4
20260901114518 80 177 0.0 0.0 0.00 0.00 0.00 77 1013.4
20260901113018 80 180 0.0 0.0 0.00 0.00 0.00 76 1013.3
20260901111511 81 179 0.0 0.0 0.00 0.00 0.00 75 1013.1
20260901110009 82 179 0.0 3.0 0.00 0.00 0.00 73 1012.9
20260901104506 82 179 0.0 2.0 0.00 0.00 0.00 73 1012.9
20260901103005 82 217 1.0 5.0 0.00 0.00 0.00 72 1012.8
20260901101504 83 207 2.0 5.0 0.00 0.00 0.00 71 1012.8
20260901100007 83 200 1.0 3.0 0.00 0.00 0.00 71 1012.8
20260901094503 83 187 1.0 4.0 0.00 0.00 0.00 70 1012.9
20260901093005 84 219 1.0 5.0 0.00 0.00 0.00 69 1013.0
20260901091501 84 229 1.0 5.0 0.00 0.00 0.00 68 1013.1
20260901084600 84 134 1.0 4.0 0.00 0.00 0.00 67 1013.0
20260901083057 84 184 0.0 3.0 0.00 0.00 0.00 65 1013.0